[[{"header":{"parameterUnit":"m.s-1","parameterCategory":1,"la1":30.2992,"la2":30.254,"lo1":-89.0895,"lo2":-89.0443,"dy":0.0025,"dx":0.0025,"nx":19,"ny":19,"refTime":"2026-03-24T03:00:00:Z","depth":0,"parameterNumber":2,"parameterNumberName":"U-component_of_WINDS"},"data":[0,0,0,-0.2256,-0.2253,-0.2144,-0.2144,-0.1961,-0.196,0,0,0,0,0,0,0,0,0,0,0,-0.2268,-0.2266,-0.2256,-0.2253,-0.2144,-0.2144,-0.1962,-0.196,0,0,0,0,0,0,0,0,0,0,0,-0.2269,-0.2266,-0.2264,-0.2252,-0.2144,-0.2144,-0.1962,-0.2058,0,0,0,0,0,0,0,0,0,0,-0.2171,-0.2164,-0.2267,-0.2264,-0.2251,-0.2144,-0.2144,-0.2064,-0.2052,-0.1994,0,-0.1942,0,-0.1948,-0.1945,-0.1944,0,0,0,-0.2266,-0.2173,-0.2163,-0.2264,-0.225,-0.2144,-0.2197,-0.2058,-0.2045,-0.1979,-0.194,-0.1934,-0.1945,-0.1944,-0.1943,-0.1571,-0.1569,0,0,-0.2272,-0.2236,-0.2171,-0.2153,-0.2174,-0.22,-0.2193,-0.2051,-0.2003,-0.194,-0.1931,-0.1942,-0.1942,-0.1941,-0.1573,-0.157,0,0,0,-0.228,-0.2239,-0.2234,-0.216,-0.2144,-0.2197,-0.2189,-0.201,-0.2011,-0.1929,-0.194,-0.1941,-0.1938,-0.1576,-0.1572,-0.1416,0,0,0,-0.2285,-0.2245,-0.2235,-0.2212,-0.2146,-0.2077,-0.215,-0.2021,-0.2006,-0.1941,-0.1941,-0.1936,-0.1579,-0.1574,-0.1426,-0.1346,0,0,0,-0.2281,-0.2244,-0.2222,-0.221,-0.2163,-0.208,-0.2074,-0.2019,-0.2012,-0.1944,-0.1936,-0.1581,-0.1575,-0.1435,-0.1361,-0.1233,0,0,0,-0.2266,-0.2086,-0.2219,-0.2022,-0.2163,-0.1988,-0.2075,-0.1945,-0.1869,-0.194,-0.1578,-0.1573,-0.1438,-0.1371,-0.1242,-0.1114,-0.106,0,0,-0.2018,-0.2055,-0.1942,-0.2058,-0.1849,-0.2007,-0.1774,-0.1737,-0.1763,-0.1632,-0.1623,-0.1423,-0.1362,-0.1235,-0.0777,-0.0733,0,0,0,-0.185,-0.1767,-0.172,-0.1648,-0.1618,-0.1582,-0.1587,-0.1572,-0.1464,-0.169,-0.1347,-0.1312,-0.1238,-0.1178,-0.1141,-0.1077,-0.1545,-0.1546,-0.1547,-0.1442,-0.1487,-0.13,-0.133,-0.1258,-0.1263,-0.1206,-0.1187,-0.1253,-0.1171,-0.113,-0.0847,-0.0776,-0.0748,-0.0681,-0.1072,-0.1071,-0.1071,-0.107,-0.1076,-0.0962,-0.1056,-0.0907,-0.0953,-0.0826,-0.0823,-0.0873,-0.0757,-0.0883,-0.082,-0.0946,-0.0699,-0.0642,-0.1059,-0.1061,-0.1062,-0.1064,-0.1064,-0.0808,-0.0761,-0.075,-0.0647,-0.0561,-0.0598,-0.0483,-0.0531,-0.0573,-0.0512,-0.0469,-0.0472,-0.0474,-0.049,-0.0489,-0.0488,-0.0487,-0.0487,-0.0486,-0.053,-0.0524,-0.0423,-0.0375,-0.0332,-0.0282,-0.0284,-0.0242,-0.0205,-0.0248,-0.0248,-0.0315,-0.067,-0.0754,-0.0471,-0.0473,-0.0475,-0.0477,-0.0478,-0.0131,-0.0229,-0.0073,-0.003,0.0025,0.0117,0.0052,0.0145,0.0173,0.0233,0.015,-0.0107,-0.0146,-0.0176,-0.0244,0.0153,0.0153,0.0153,0.0153,0.0102,0.0074,0.0226,0.0298,0.0363,0.0322,0.0509,0.051,0.0497,0.0513,0.0447,0.0349,0.032,0.0299,0.0259,0.0195,0.0695,0.0696,0.0696,0.0349,0.0326,0.0492,0.0472,0.0512,0.055,0.0726,0.0819,0.0783,0.0717,0.0527,0.0505,0.0346,0.0294,0.0232,0.017,0.005,0,0]},{"header":{"parameterUnit":"m.s-1","parameterCategory":1,"la1":30.2992,"la2":30.254,"lo1":-89.0895,"lo2":-89.0443,"dy":0.0025,"dx":0.0025,"nx":19,"ny":19,"refTime":"2026-03-24T03:00:00:Z","depth":0,"parameterNumber":3,"parameterNumberName":"V-component_of_WINDS"},"data":[0,0,0,-2.6245,-2.6244,-2.6224,-2.6224,-2.6183,-2.6182,0,0,0,0,0,0,0,0,0,0,0,-2.6243,-2.6242,-2.6245,-2.6244,-2.6224,-2.6224,-2.6183,-2.6182,0,0,0,0,0,0,0,0,0,0,0,-2.6243,-2.6242,-2.6242,-2.6244,-2.6224,-2.6224,-2.6183,-2.6203,0,0,0,0,0,0,0,0,0,0,-2.6225,-2.6216,-2.6243,-2.6242,-2.6244,-2.6224,-2.6224,-2.6204,-2.6202,-2.6185,0,-2.6171,0,-2.6176,-2.6178,-2.6178,0,0,0,-2.6249,-2.6218,-2.622,-2.6242,-2.6243,-2.6224,-2.6235,-2.6203,-2.62,-2.6182,-2.617,-2.6169,-2.6175,-2.6178,-2.6178,-2.607,-2.6069,0,0,-2.625,-2.6235,-2.6222,-2.6218,-2.6223,-2.6235,-2.6234,-2.6201,-2.6187,-2.617,-2.6168,-2.6174,-2.6178,-2.6177,-2.6071,-2.607,0,0,0,-2.625,-2.6235,-2.6238,-2.6219,-2.6217,-2.6234,-2.6233,-2.6188,-2.6191,-2.6168,-2.6174,-2.6177,-2.6177,-2.6071,-2.607,-2.6017,0,0,0,-2.6251,-2.6235,-2.6238,-2.6228,-2.6217,-2.6203,-2.622,-2.6193,-2.619,-2.6174,-2.6177,-2.6176,-2.6072,-2.6071,-2.602,-2.5993,0,0,0,-2.6246,-2.6235,-2.6229,-2.6228,-2.6219,-2.6204,-2.6205,-2.6193,-2.6193,-2.6178,-2.6176,-2.6073,-2.6071,-2.6023,-2.5998,-2.5958,0,0,0,-2.6237,-2.6183,-2.6228,-2.617,-2.6219,-2.6173,-2.6205,-2.6171,-2.6152,-2.6177,-2.6072,-2.607,-2.6024,-2.6001,-2.5961,-2.5919,-2.5901,0,0,-2.616,-2.6173,-2.614,-2.618,-2.6122,-2.6177,-2.611,-2.6107,-2.6119,-2.6085,-2.6083,-2.6019,-2.5999,-2.5959,-2.5813,-2.5798,0,0,0,-2.611,-2.6085,-2.6074,-2.6056,-2.6053,-2.6048,-2.6057,-2.6055,-2.6028,-2.6099,-2.5997,-2.5985,-2.5962,-2.5942,-2.593,-2.5909,-2.6062,-2.6062,-2.6062,-2.5976,-2.5996,-2.5941,-2.5958,-2.594,-2.595,-2.5936,-2.5936,-2.5961,-2.5936,-2.5925,-2.5834,-2.5811,-2.5802,-2.578,-2.5907,-2.5907,-2.5907,-2.5907,-2.5861,-2.5828,-2.5864,-2.5823,-2.5843,-2.5809,-2.5816,-2.5834,-2.5803,-2.5845,-2.5825,-2.5866,-2.5785,-2.5767,-2.5903,-2.5904,-2.5904,-2.5905,-2.5905,-2.5772,-2.5759,-2.5761,-2.5736,-2.5714,-2.5734,-2.5702,-2.5722,-2.5741,-2.5722,-2.571,-2.5711,-2.5711,-2.5716,-2.5716,-2.5716,-2.5715,-2.5715,-2.5715,-2.5678,-2.5681,-2.5652,-2.5645,-2.5636,-2.5626,-2.5636,-2.5626,-2.562,-2.5636,-2.5636,-2.5661,-2.5776,-2.5802,-2.571,-2.5711,-2.5711,-2.5712,-2.5712,-2.5547,-2.558,-2.5536,-2.5527,-2.5519,-2.5494,-2.5523,-2.5501,-2.5496,-2.5478,-2.5508,-2.5592,-2.5605,-2.5615,-2.5636,-2.5507,-2.5507,-2.5507,-2.5507,-2.5469,-2.5479,-2.5438,-2.5421,-2.5407,-2.5428,-2.5374,-2.538,-2.5392,-2.5389,-2.5412,-2.5444,-2.5453,-2.5461,-2.5474,-2.5494,-2.5331,-2.5331,-2.5331,-2.5388,-2.5398,-2.5349,-2.5363,-2.5359,-2.5353,-2.5302,-2.5279,-2.5299,-2.5324,-2.5387,-2.5394,-2.5445,-2.5462,-2.5484,-2.5504,-2.5542,0,0]}]]